Regional Weather Roundup
Issued by NWS Boston, MA

Current Version | Previous Version | Text Only | Print | Product List | Glossary Off
Versions: 1 2 3 4 5 6 7 8 9 10 11 12 13 14 15 16 17 18 19 20 21 22 23 24 25 26 27 28 29 30 31 32 33 34 35 36 37 38 39 40 41 42 43 44 45 46 47 48 49 50
000 ASUS41 KBOX 220610 RWRBOX REGIONAL WEATHER ROUNDUP NATIONAL WEATHER SERVICE BOSTON/NORTON MA 100 AM EST TUE JAN 22 2019 NOTE: "FAIR" INDICATES FEW OR NO CLOUDS BELOW 12,000 FEET WITH NO SIGNIFICANT WEATHER AND/OR OBSTRUCTIONS TO VISIBILITY. MAZALL-220700- EASTERN MASSACHUSETTS CITY SKY/WX TMP DP RH WIND PRES REMARKS BOSTON FAIR 8 -11 41 NW18G28 30.16R WCI -11 6HR MIN TEMP: 6; 6HR MAX TEMP: 8; 6HR PCP: TRACE; BEVERLY FAIR 6 -12 43 NW17G28 30.13R WCI -13 LAWRENCE FAIR 5 -12 45 NW12G22 30.17R WCI -11 BEDFORD FAIR 5 -14 41 NW18G31 30.17R WCI -15 BLUE HILL N/A 1 -8 66 NW18G25 30.08R WCI -20 NORWOOD FAIR 7 -11 43 W13 30.18R WCI -9 MARSHFIELD FAIR 7 -8 51 NW12G18 30.15R WCI -9 PLYMOUTH FAIR N/A N/A N/A W14G22 30.15R TAUNTON FAIR 6 -10 47 W7 30.18R WCI -6 NEW BEDFORD FAIR 5 -9 52 NW9G24 30.17R WCI -9 $$ MAZALL-220700- CAPE COD AND THE ISLANDS CITY SKY/WX TMP DP RH WIND PRES REMARKS FALMOUTH NOT AVBL HYANNIS FAIR 7 -8 50 W13G24 30.10S WCI -9 CHATHAM LGT SNOW 8 32 100 NW8G28 30.11R WCI -4 PROVINCETOWN CLOUDY 10 4 76 NW26G38 30.11R WCI -11 NANTUCKET MOCLDY 8 -5 55 NW28G37 30.13R WCI -14 MARTHAS VNYRD FAIR 7 -8 50 NW23G38 30.16R WCI -14 $$ MAZALL-220700- CENTRAL AND WESTERN MASSACHUSETTS CITY SKY/WX TMP DP RH WIND PRES REMARKS WORCESTER FAIR 0 -16 46 W26G39 30.08R WCI -25 6HR MIN TEMP: -1; 6HR MAX TEMP: 1; FITCHBURG FAIR 2 -15 45 NW22G31 30.17R WCI -20 ORANGE N/A 4 -16 39 N12G22 30.21R WCI -12 SPRINGFIELD FAIR 3 -15 41 N6 30.27R WCI -8 WESTFIELD FAIR 4 -14 43 N10G17 30.29R WCI -11 NORTH ADAMS FAIR -1 -14 53 W9 30.32R WCI -16 PITTSFIELD FAIR 0 -14 51 W10 30.25R WCI -16 $$ RIZALL-220700- RHODE ISLAND CITY SKY/WX TMP DP RH WIND PRES REMARKS PROVIDENCE FAIR 5 -9 52 NW13G21 30.21R WCI -12 6HR MIN TEMP: 4; 6HR MAX TEMP: 6; 6HR PCP: TRACE; NEWPORT FAIR 6 -8 52 NW17G29 30.20R WCI -13 BLOCK ISLAND FAIR 9 -6 50 NW22G33 30.24R WCI -11 SMITHFIELD FAIR 1 -7 68 NW13 30.16R WCI -17 WESTERLY FAIR 9 -11 40 NW10G26 30.25 WCI -5 $$ CTZALL-220700- CONNECTICUT CITY SKY/WX TMP DP RH WIND PRES REMARKS BRADLEY INTL FAIR 5 -12 45 NW17G25 30.29R WCI -14 6HR MIN TEMP: 3; 6HR MAX TEMP: 5; HARTFORD FAIR 8 -11 41 NW14G21 30.33R WCI -8 BRIDGEPORT FAIR 12 -2 53 NW10G22 30.36R WCI -1 DANBURY FAIR 9 -2 61 NW5 30.34R WCI 1 GROTON FAIR 9 -11 40 NW21G30 30.27R WCI -11 NEW HAVEN FAIR 12 -1 56 NW12G22 30.32R WCI -2 CHESTER FAIR 7 -8 51 NW12G20 30.26R WCI -9 MERIDEN FAIR 8 -4 58 NW12 30.30R WCI -7 WILLIMANTIC FAIR 4 -9 55 NW10G23 30.25R WCI -11 OXFORD FAIR 6 -1 73 NW14G25 30.27R WCI -11 $$ MEZ002-015-021-024-NHZ003-005-008-011-012-014-VTZ005-008-220700- NORTHERN NEW ENGLAND CITY SKY/WX TMP DP RH WIND PRES REMARKS PORTLAND ME FAIR 4 -9 55 NW13 30.06R WCI -13 6HR MIN TEMP: 3; 6HR MAX TEMP: 5; 6HR PCP: TRACE; BANGOR ME LGT SNOW 6 -3 66 NW16G25 29.91R BLWGSNOWWCI -12 CONCORD NH FAIR 2 -10 57 NW29G39 30.15R WCI -23 MANCHESTER NH FAIR 5 -12 45 NW18G28 30.15R WCI -15 NASHUA NH FAIR 3 -11 52 NW16G25 30.18R WCI -16 PORTSMOUTH NH CLEAR 4 -14 42 W14G30 30.09R WCI -13 JAFFREY NH FAIR 2 -14 47 NW9 30.10R WCI -13 KEENE NH FAIR 2 -13 49 VRB5 30.24R WCI -8 BURLINGTON VT FAIR -1 -11 62 N8 30.37R WCI -15 MT. WASHINGTON NOT AVBL $$ NYZ052-076-220700- EASTERN NEW YORK CITY SKY/WX TMP DP RH WIND PRES REMARKS ALBANY FAIR 5 -10 50 NW20G31 30.40R WCI -15 6HR MIN TEMP: 2; 6HR MAX TEMP: 5; NEW YORK CITY FAIR 15 2 56 NW23G33 30.41R WCI -3 6HR MIN TEMP: 12; 6HR MAX TEMP: 16; $$ ANZALL-220700- MARINE OBSERVATIONS STATION/POSITION TIME TEMP WIND PRES VSBY WAVE AIR SEA DIR/SP/G HT/PER (UTC) (F) (DEG/KT/KT) (MB) (MI) (FT/S) BOSTON BUOY 0550 11 41 310/ 29/ 37 1019.4R 6/ 4 BUZZARDS BAY 0500 8 310/ 33/ 38 1022.2R NANTUCKET SOUND 0550 11 34 310/ 25/ 33 1020.8R 4/ 4 MASS BAY-STELLWA 0504 11 40 320/ 23/ 29 1017.6R 1 7/8 6/ 4 ISLE OF SHOALS 0600 7 310/ 26/ 33 1019.0R S OF BLOCK IS 0600 44 N/A 11/ 8 $$ ......................KEY......................... SKY/WX - SKY CONDITION/PRESENT WEATHER TMP - TEMPERATURE IN FAHRENHEIT DWPT - DEWPOINT IN FAHRENHEIT RH - RELATIVE HUMIDITY IN PERCENT WIND - DIRECTION AND SPEED IN MPH PRES - MEAN SEA LEVEL PRESSURE IN INCHES OF HG WCI - WIND CHILL INDEX VSB - VISIBILITY IN MILES HX - HEAT INDEX TC - TEMPERATURE IN CELSIUS VRB - VARIABLE WIND DIRECTION N/A - NOT AVAILABLE

USA.gov is the U.S. government's official web portal to all federal, state and local government web resources and services.